This is the latest recevied weather packets stored in our database for station/object LX1CU-13. If no packets are shown the sender has not sent any weather packets the latest 10 day(s).
| Time | Temp. | Humidity | Pressure | Rain* | Wind** | Luminosity | Snow |
|---|---|---|---|---|---|---|---|
| 1777730921 | 26.67° C | 47% | 1013 hPa | 0 mm | - | - | - |
| 1777730621 | 26.11° C | 46% | 1013.1 hPa | 0 mm | - | - | - |
| 1777730321 | 26.67° C | 46% | 1013.3 hPa | 0 mm | - | - | - |
| 1777730021 | 25.56° C | 48% | 1013.5 hPa | 0 mm | - | - | - |
| 1777729721 | 25.56° C | 46% | 1013.5 hPa | 0 mm | - | - | - |
| 1777729421 | 26.11° C | 44% | 1013.6 hPa | 0 mm | - | - | - |
| 1777729121 | 26.67° C | 42% | 1013.5 hPa | 0 mm | - | - | - |
| 1777728821 | 26.67° C | 42% | 1013.5 hPa | 0 mm | - | - | - |
| 1777728521 | 27.22° C | 41% | 1013.7 hPa | 0 mm | - | - | - |
| 1777728221 | 27.22° C | 41% | 1013.7 hPa | 0 mm | - | - | - |
| 1777727921 | 27.78° C | 39% | 1013.9 hPa | 0 mm | - | - | - |
| 1777727621 | 28.89° C | 38% | 1013.9 hPa | 0 mm | - | - | - |
| 1777727321 | 29.44° C | 37% | 1014 hPa | 0 mm | - | - | - |
| 1777727021 | 29.44° C | 38% | 1014.2 hPa | 0 mm | - | - | - |
| 1777726721 | 30° C | 36% | 1014.1 hPa | 0 mm | - | - | - |
| 1777726421 | 32.22° C | 34% | 1014.2 hPa | 0 mm | - | - | - |
| 1777726121 | 33.33° C | 34% | 1013.9 hPa | 0 mm | - | - | - |
| 1777725521 | 32.78° C | 35% | 1014.3 hPa | 0 mm | - | - | - |
| 1777725221 | 32.22° C | 36% | 1014.3 hPa | 0 mm | - | - | - |
| 1777724921 | 31.11° C | 37% | 1014.4 hPa | 0 mm | - | - | - |
| 1777724621 | 30.56° C | 37% | 1014.5 hPa | 0 mm | - | - | - |
| 1777724321 | 30° C | 38% | 1014.7 hPa | 0 mm | - | - | - |
| 1777724021 | 28.89° C | 38% | 1014.8 hPa | 0 mm | - | - | - |
| 1777723721 | 28.89° C | 37% | 1015 hPa | 0 mm | - | - | - |
| 1777723421 | 30° C | 36% | 1015 hPa | 0 mm | - | - | - |
* Rain latest hour (hover to see other rain measurements)
** Current wind speed in m/s (hover to see current wind gust speed)